Preview of NWS' New Version of Forecast
This preview is not operational and should not be used for support decisions.

Regional Weather Roundup (RWR)

Issued by Gray - Portland, ME (GYX)

                            
000
ASUS41 KGYX 210410
RWRGYX
WEATHER ROUNDUP FOR MAINE AND NEW HAMPSHIRE
NATIONAL WEATHER SERVICE GRAY ME
1100 PM EST SUN JAN 20 2019

MEZ002-005-006-010-012-015-018-020-021-024-026-027-029-210500-
MAINE
  
CITY           SKY/WX    TMP DP  RH WIND       PRES   REMARKS
PORTLAND       MOCLDY    15   4  61 NW12G23   29.38R WCI   2          
SANFORD        FAIR       6  -3  66 W15G21    29.40R WCI -12          
BAR HARBOR     FLURRIES  15  12  88 NW10G22   29.23R WCI   2          
WISCASSET      CLOUDY    14   5  67 VRB7      29.36R                  
ROCKLAND       CLOUDY    12   6  77 NW13G20   29.29R WCI  -3          
FRYEBURG       CLOUDY    10  -2  58 CALM      29.39R                  
LEWISTONAUBURN MOCLDY     9  -2  61 NW16G25   29.38R WCI  -8          
AUGUSTA        CLOUDY    11   1  64 NW15G24   29.34R WCI  -5          
WATERVILLE       N/A    N/A N/A N/A MISG        N/A                   
BANGOR         CLOUDY    11   5  77 NW15      29.29S WCI  -5          
GREENVILLE       N/A      4  -3  73 NW20G29   29.25R WCI -17          
MILLINOCKET    CLOUDY     9   3  77 NW8       29.31S HAZE             
HOULTON        LGT SNOW  16  13  88 N12       29.24R VSB 3/4 WCI   3  
PRESQUE ISLE   LGT SNOW  11   7  84 N20       29.34R VSB 1   WCI  -7  
FRENCHVILLE    LGT SNOW  10   3  73 N15G24    29.35S VSB 3/4 WCI  -7  
CARIBOU        SNOW      11   5  77 N17G29    29.33R VSB 1/2 WCI  -6  
$$

NHZ002-005-008-009-011-012-014-210500-
NEW HAMPSHIRE
  
CITY           SKY/WX    TMP DP  RH WIND       PRES   REMARKS
PORTSMOUTH     CLOUDY     8  -6  54 W18G26    29.42R WCI -11          
ROCHESTER      MOCLDY     6  -5  60 W8G17     29.41R                  
NASHUA         FAIR       5  -5  63 NW17G28   29.53R WCI -14          
MANCHESTER     FAIR       5  -9  52 NW24G35   29.50R WCI -17          
CONCORD        FAIR       2 -10  57 NW23G32   29.50R WCI -21          
LACONIA        FAIR       0  -9  65 W15G22    29.45R WCI -19          
PLYMOUTH       FAIR      -1 -10  65 NW15G35   29.51R HAZE    WCI -21  
BERLIN         FAIR      -3 -10  72 W8        29.49R                  
WHITEFIELD     CLOUDY    -4 -11  72 W5        29.55R                  
JAFFREY        FAIR       1  -9  62 NW8       29.48R                  
KEENE          FAIR       2  -9  60 N12G21    29.59R WCI -15          
LEBANON        FAIR       0 -13  54 N14G21    29.60R WCI -19          
MT WASHINGTON  PTCLDY     1  -2  85 W31         N/A  WCI -24          
$$

VTZ005-007-008-210500-
VERMONT
  
CITY           SKY/WX    TMP DP  RH WIND       PRES   REMARKS
ST JOHNSBURY     N/A     -5 -12  72 MISG      29.60S                  
MONTPELIER     CLOUDY    -5  -9  83 NW14      29.62S FOG     WCI -25  
BURLINGTON     LGT SNOW   0  -5  79 N9        29.75R FOG              
$$

MAZ007-012-024-CTZ003-RIZ002-NYZ038-NYZ072-210500-
SOUTHERN NEW ENGLAND AND NY
  
CITY           SKY/WX    TMP DP  RH WIND       PRES   REMARKS
BOSTON         FAIR      13   0  56 NW21G32   29.50R WCI  -5          
WORCESTER      FAIR       2  -7  66 NW21G35   29.47R WCI -20          
NANTUCKET      CLOUDY    25  18  74 NW20G28   29.43R WCI  11          
PROVIDENCE     FAIR      13   5  70 NW14G28   29.54R WCI  -2          
HARTFORD       FAIR       4  -6  63 NW18G26   29.65R WCI -16          
ALBANY         FAIR       0 -11  59 W16G29    29.79R WCI -20          
NEW YORK CITY  FAIR      16   6  65 NW21G31   29.75R WCI  -1          
$$

ANZ081-ANZ082-ANZ150-NHZ014-MEZ023>029-210500-
COASTAL MARINE OBSERVATIONS
  
STATION/POSITION TIME  TEMP    WIND        PRES    WAVE
                       AIR SEA DIR/SP/G            HT/PER
                 (UTC) (F)     (DEG/KT/KT) (MB)    (FT/S)
MOUNT DESERT ROC 0400   19     310/ 18/ 20  988.8R
MATINICUS ROCK   0300   18     310/ 21/ 23  989.8R
ISLE OF SHOALS   0300   11     280/ 32/ 36  994.8R
JEFFREYS LEDGE   0338      41                N/A    10/11
CASHES LEDGE BUO 0350   23 40               991.3R  12/ 9
$$

.............KEY..............
   WCI - WIND CHILL
   TC  - TEMPERATURE IN CELSIUS
   VSB - VISIBILITY IN MILES
   HX  - HEAT INDEX
   FAIR- INDICATES FEW OR NO CLOUDS BELOW 12,000 FT, WITH NO 
         SIGNIFICANT WEATHER AND/OR OBSTRUCTIONS TO VISIBILITY.